Location: Góry Miechowskie
(50.3599°N, 20.1803°E)
Time: 15:58:06
(UTC+00:00)

Vanguard 1 Rocket - Pass Details

Date: 22 September 2024
Orbit: 650 x 4218 km, 34.3° (Epoch: 07 October)

Event Time Altitude Azimuth Distance (km) Brightness Sun altitude
Rises 02:10:20 0° 242° (WSW) 5,085 - -21.6°
Reaches altitude 10° 02:13:15 10° 235° (SW) 4,465 - -21.1°
Exits shadow 02:16:59 24° 223° (SW) 3,874 10.0 -20.6°
Maximum altitude 02:25:43 45° 168° (SSE) 3,730 10.3 -19.4°
Drops below altitude 10° 02:46:46 10° 106° (ESE) 7,257 12.7 -16.3°
Sets 02:53:16 0° 102° (ESE) 8,441 13.4 -15.3°
